This is the latest recevied weather packets stored in our database for station/object IR1CH-3. If no packets are shown the sender has not sent any weather packets the latest 10 day(s).
| Time | Temp. | Humidity | Pressure | Rain* | Wind** | Luminosity | Snow |
|---|---|---|---|---|---|---|---|
| 1777860650 | 15° C | 75% | 1017.6 hPa | - | - | - | - |
| 1777858850 | 15.56° C | 72% | 1017.7 hPa | - | - | - | - |
| 1777857050 | 15.56° C | 71% | 1017.6 hPa | - | - | - | - |
| 1777855249 | 15.56° C | 65% | 1017.7 hPa | - | - | - | - |
| 1777853449 | 15.56° C | 58% | 1018.1 hPa | - | - | - | - |
| 1777851649 | 15.56° C | 55% | 1018.3 hPa | - | - | - | - |
| 1777849849 | 15.56° C | 55% | 1018.2 hPa | - | - | - | - |
| 1777848048 | 15.56° C | 57% | 1018.3 hPa | - | - | - | - |
| 1777844448 | 15.56° C | 66% | 1018.4 hPa | - | - | - | - |
| 1777842649 | 15.56° C | 74% | 1018.5 hPa | - | - | - | - |
| 1777840892 | 15.56° C | 77% | 1018.6 hPa | - | - | - | - |
| 1777839092 | 16.11° C | 79% | 1018.5 hPa | - | - | - | - |
| 1777837292 | 16.11° C | 79% | 1018.2 hPa | - | - | - | - |
| 1777835491 | 16.67° C | 83% | 1018.1 hPa | - | - | - | - |
| 1777833691 | 16.67° C | 84% | 1017.9 hPa | - | - | - | - |
| 1777831891 | 17.22° C | 84% | 1017.9 hPa | - | - | - | - |
| 1777830091 | 17.22° C | 84% | 1018 hPa | - | - | - | - |
| 1777828290 | 17.22° C | 81% | 1018.1 hPa | - | - | - | - |
| 1777826490 | 17.78° C | 77% | 1018.1 hPa | - | - | - | - |
| 1777824689 | 17.78° C | 72% | 1018.2 hPa | - | - | - | - |
| 1777822889 | 18.33° C | 66% | 1018.3 hPa | - | - | - | - |
| 1777821089 | 18.89° C | 63% | 1018.3 hPa | - | - | - | - |
| 1777819288 | 18.89° C | 63% | 1018.6 hPa | - | - | - | - |
| 1777817488 | 18.89° C | 63% | 1019 hPa | - | - | - | - |
| 1777815688 | 19.44° C | 60% | 1019.4 hPa | - | - | - | - |
* Rain since midnight (hover to see other rain measurements)
** Current wind speed in m/s (hover to see current wind gust speed)